Weather History for Bradford, PA

Change the Weather History Date:

Monday, December 16, 2013

  Actual Average Record
Temperature  
Mean Temperature 7 °F 25 °F  
Max Temperature 18 °F 32 °F 55 °F (1984)
Min Temperature -5 °F 18 °F -5 °F (2013)
Degree Days  
Heating Degree Days 58 35  
Month to date heating degree days 642 517  
Since 1 July heating degree days 2430 2352  
Cooling Degree Days 0 0  
Month to date cooling degree days 0 0  
Year to date cooling degree days 334 193  
Moisture  
Dew Point 4 °F    
Average Humidity 71    
Maximum Humidity 87    
Minimum Humidity 54    
Precipitation  
Precipitation T in 0.11 in 0.78 in (2000)
Month to date precipitation 0.62 1.85  
Year to date precipitation 32.65 42.91  
Sea Level Pressure  
Sea Level Pressure 29.99 in    
Wind  
Wind Speed 6 mph (West)    
Max Wind Speed 16 mph    
Max Gust Speed 23 mph    
Visibility 5 miles    
Events Snow    
T = Trace of Precipitation, MM = Missing Value Source: NWS Daily Summary

Daily Weather History Graph

Daily Weather History Graph

Search for Another Location

Airport:

Trip Planner

Search our weather history database for the weather conditions in past years. The results will help you decide how hot, cold, wet, or windy it might be!

Date:

Astronomy

Dec. 16, 2013 Rise Set
Actual Time 7:35 AM EST 4:44 PM EST
Civil Twilight 7:04 AM EST 5:16 PM EST
Nautical Twilight 6:29 AM EST 5:51 PM EST
Astronomical Twilight 5:55 AM EST 6:25 PM EST
Moon 4:34 PM EST (12/16) 6:41 AM EST (12/16)
Length of Visible Light 10h 12m
Length of Day
9h 09m
Full, 100% of the Moon is Illuminated
Dec 16
Full
Dec 17
Full
Dec 25
Last Quarter
Jan 1
New
Jan 7
First Quarter

Hourly Weather History & Observations

Time (EST) Temp. Windchill Dew Point Humidity Pressure Visibility Wind Dir Wind Speed Gust Speed Precip Events Conditions
12:19 AM 14.0 °F 1.2 °F 8.1 °F 77% 29.80 in 2.5 mi West 10.4 mph 20.7 mph 0.00 in Snow Light Snow
12:29 AM 14.0 °F 1.2 °F 8.1 °F 77% 29.80 in 3.0 mi West 10.4 mph 20.7 mph 0.00 in Snow Light Snow
12:37 AM 14.0 °F 1.2 °F 8.1 °F 77% 29.81 in 2.5 mi West 10.4 mph 18.4 mph 0.00 in Snow Light Snow
12:53 AM 14.0 °F 0.5 °F 7.0 °F 74% 29.90 in 2.0 mi West 11.5 mph 23.0 mph 0.00 in Snow Light Snow
1:18 AM 12.9 °F -2.2 °F 7.0 °F 77% 29.83 in 1.8 mi West 13.8 mph 20.7 mph 0.00 in Snow Light Snow
1:53 AM 12.9 °F 0.7 °F 7.0 °F 77% 29.93 in 1.8 mi West 9.2 mph - 0.00 in Snow Light Snow
2:14 AM 12.9 °F 0.7 °F 7.0 °F 77% 29.84 in 2.0 mi West 9.2 mph 18.4 mph 0.00 in Snow Light Snow
2:53 AM 12.0 °F 0.5 °F 6.1 °F 77% 29.96 in 2.0 mi West 8.1 mph 18.4 mph 0.00 in Snow Light Snow
3:08 AM 12.0 °F -0.4 °F 6.1 °F 77% 29.87 in 2.0 mi West 9.2 mph - 0.00 in Snow Light Snow
3:42 AM 12.0 °F -1.3 °F 6.1 °F 77% 29.87 in 2.5 mi West 10.4 mph 19.6 mph 0.00 in Snow Light Snow
3:50 AM 12.2 °F -1.0 °F 6.8 °F 79% 29.87 in 2.0 mi West 10.4 mph - 0.00 in Snow Light Snow
3:53 AM 12.0 °F -0.4 °F 6.1 °F 77% 29.97 in 2.5 mi West 9.2 mph - 0.00 in Snow Light Snow
4:11 AM 12.0 °F -0.4 °F 6.1 °F 77% 29.88 in 1.8 mi West 9.2 mph - 0.00 in Snow Light Snow
4:26 AM 12.0 °F 1.5 °F 6.1 °F 77% 29.87 in 2.0 mi West 6.9 mph - 0.00 in Snow Light Snow
4:53 AM 12.0 °F 1.5 °F 6.1 °F 77% 29.97 in 2.5 mi Variable 6.9 mph - 0.00 in Snow Light Snow
5:41 AM 10.9 °F 1.4 °F 6.1 °F 81% 29.89 in 1.5 mi Variable 5.8 mph - 0.00 in Snow Light Snow
5:53 AM 10.9 °F 2.9 °F 6.1 °F 81% 29.99 in 1.8 mi Variable 4.6 mph - 0.00 in Snow Light Snow
6:11 AM 12.0 °F 1.5 °F 6.1 °F 77% 29.90 in 2.0 mi WSW 6.9 mph - 0.00 in Snow Light Snow
6:18 AM 12.0 °F 1.5 °F 6.1 °F 77% 29.90 in 1.5 mi WSW 6.9 mph - 0.00 in Snow Light Snow
6:36 AM 12.0 °F 5.9 °F 6.1 °F 77% 29.91 in 2.5 mi Variable 3.5 mph - 0.00 in Snow Light Snow
6:53 AM 12.0 °F 2.7 °F 6.1 °F 77% 30.01 in 1.8 mi Variable 5.8 mph - 0.00 in Snow Light Snow
7:15 AM 10.9 °F 2.9 °F 6.1 °F 81% 29.91 in 2.0 mi Variable 4.6 mph - 0.00 in Snow Light Snow
7:53 AM 10.9 °F 2.9 °F 6.1 °F 81% 30.03 in 1.5 mi West 4.6 mph - 0.00 in Snow Light Snow
8:06 AM 10.9 °F 2.9 °F 6.1 °F 81% 29.93 in 2.0 mi Variable 4.6 mph - 0.00 in Snow Light Snow
8:10 AM 10.9 °F 1.4 °F 5.0 °F 77% 29.93 in 3.0 mi SW 5.8 mph - 0.00 in Snow Light Snow
8:22 AM 10.9 °F 0.2 °F 5.0 °F 77% 29.94 in 2.5 mi WSW 6.9 mph - 0.00 in Snow Light Snow
8:53 AM 10.9 °F 1.4 °F 5.0 °F 77% 30.06 in 1.8 mi Variable 5.8 mph - 0.00 in Snow Light Snow
9:53 AM 12.0 °F 1.5 °F 5.0 °F 73% 30.08 in 4.0 mi Variable 6.9 mph - 0.00 in Snow Light Snow
10:53 AM 14.0 °F 2.9 °F 6.1 °F 71% 30.10 in 5.0 mi West 8.1 mph - 0.00 in Snow Light Snow
11:53 AM 15.1 °F 3.3 °F 6.1 °F 68% 30.10 in 7.0 mi West 9.2 mph - 0.00 in Snow Light Snow
12:53 PM 16.0 °F 2.9 °F 5.0 °F 62% 30.09 in 10.0 mi West 11.5 mph - 0.00 in   Overcast
1:53 PM 17.1 °F 7.6 °F 3.9 °F 56% 30.09 in 10.0 mi West 6.9 mph - N/A   Overcast
2:53 PM 16.0 °F 2.3 °F 5.0 °F 62% 30.09 in 8.0 mi NW 12.7 mph - N/A   Overcast
3:53 PM 16.0 °F 7.4 °F 3.9 °F 59% 30.10 in 10.0 mi WNW 5.8 mph - N/A   Mostly Cloudy
4:53 PM 15.1 °F 9.4 °F 3.9 °F 61% 30.12 in 10.0 mi West 3.5 mph - N/A   Overcast
5:21 PM 12.9 °F - 3.0 °F 65% 30.01 in 10.0 mi Calm Calm - N/A   Scattered Clouds
5:45 PM 10.0 °F - 1.9 °F 70% 30.02 in 10.0 mi Calm Calm - N/A   Mostly Cloudy
5:53 PM 9.0 °F - 1.9 °F 73% 30.14 in 10.0 mi Calm Calm - N/A   Scattered Clouds
6:53 PM 6.1 °F - -0.0 °F 76% 30.16 in 10.0 mi Calm Calm - N/A   Clear
7:53 PM 1.9 °F - -2.0 °F 83% 30.17 in 10.0 mi Calm Calm - N/A   Clear
8:53 PM -0.0 °F - -5.1 °F 79% 30.16 in 9.0 mi Calm Calm - N/A   Clear
9:53 PM -0.9 °F - -7.1 °F 75% 30.16 in 10.0 mi Calm Calm - N/A   Clear
10:53 PM -2.9 °F -11.2 °F -9.9 °F 72% 30.13 in 4.0 mi ESE 3.5 mph - N/A   Haze
11:36 PM -2.0 °F -10.1 °F -8.0 °F 76% 29.99 in 9.0 mi SSE 3.5 mph - N/A   Mostly Cloudy
11:48 PM -0.4 °F -8.3 °F -7.6 °F 72% 29.99 in 10.0 mi SSE 3.5 mph - N/A   Overcast
11:53 PM -0.9 °F -8.9 °F -7.1 °F 75% 30.12 in 10.0 mi SE 3.5 mph - N/A   Overcast